Regional Weather Roundup
Issued by NWS Goodland, KS

Home | Current Version | Previous Version | Graphics & Text | Print | Product List | Glossary On
Versions: 1 2 3 4 5 6 7 8 9 10 11 12 13 14 15 16 17 18 19 20 21 22 23 24 25 26 27 28 29 30 31 32 33 34 35 36 37 38 39 40 41 42 43 44 45 46 47 48 49 50
000
ASUS43 KGLD 301659
RWRGLD

GOODLAND FORECAST AREA HOURLY WEATHER ROUNDUP
NATIONAL WEATHER SERVICE GOODLAND KS
1100 AM MDT TUE AUG 30 2016

...OFFICIAL OBSERVATIONS...

CITY           SKY/WX    TMP DP  RH WIND       PRES   REMARKS
GOODLAND KS    PTSUNNY   70  62  76 VRB3      30.29S
HILL CITY KS   CLOUDY    74  67  78 CALM      30.24S
IMPERIAL NEB   CLOUDY    72  64  76 SE9       30.28R
MCCOOK NEB     CLOUDY    71  66  84 VRB3      30.26R
AKRON CO       MOSUNNY   75  52  44 VRB6      30.32S
BURLINGTON CO  MOSUNNY   70  59  68 SE7       30.31S
LIMON CO       SUNNY     74  49  41 SE6       30.36S
$$

...UNOFFICIAL OBSERVATIONS...

CITY           SKY/WX    TMP DP  RH WIND       PRES   REMARKS
COLBY KS       CLOUDY    72  68  88 SE7       30.29S
LENORA KS        N/A     73  32  22 MISG        N/A
NORTON KS      PTSUNNY   73  64  73 SE3       30.25R HAZE
SHARON SPRINGS   N/A     70  66  86 CALM        N/A
TRENTON NEB      N/A     70  32  24 MISG        N/A
YUMA CO          N/A     75  58  55 CALM        N/A
$$




USA.gov is the U.S. government's official web portal to all federal, state and local government web resources and services.